Location: Howard City Library
(37.4684°N, 96.2639°W)
Time: 02:09:28
(UTC+00:00)

STARLINK-56 - Pass Details

Date: 18 February 2020
Orbit: 529 x 530 km, 53.0° (Epoch: 03 April)

Event Time Altitude Azimuth Distance (km) Brightness Sun altitude
Rises 00:36:03 0° 206° (SSW) 2,626 7.6 -6.6°
Reaches altitude 10° 00:38:22 10° 197° (SSW) 1,738 6.5 -7.1°
Maximum altitude 00:41:57 34° 131° (SE) 855 4.3 -7.8°
Enters shadow 00:45:32 10° 65° (ENE) 1,730 5.5 -8.5°
